When you browse on this site, cookies collect data to enhance your experience and personalize the content and advertising you see.
Visit our Privacy Policy to learn more. By continuing to use the site, you agree to this use of cookies and data.
  • In Hungary
  • List of Countries
  • For 7 days
  • Water Temperature
  • Satellite Maps
  • Weather Map
  • News
  • Weather Widgets
  • user-avatar
    Login

    Hourly Weather Spas

    Today, 25 May, Saturday

    Time Temperature Precipitation Wind Pressure Humidity
    00:00 +9°C° 0 mm 2 mps 745 mmHg 93%
    01:00 +9°C° 0 mm 2 mps 745 mmHg 93%
    02:00 +9°C° 0 mm 2 mps 744 mmHg 92%
    03:00 +10°C° 0 mm 2 mps 744 mmHg 91%
    04:00 +10°C° 0 mm 2 mps 744 mmHg 90%
    05:00 +10°C° 0 mm 3 mps 744 mmHg 89%
    06:00 +11°C° 0 mm 3 mps 743 mmHg 88%
    07:00 +11°C° 0 mm 3 mps 743 mmHg 86%
    08:00 +12°C° 0 mm 3 mps 743 mmHg 85%
    09:00 +14°C° 0 mm 3 mps 743 mmHg 77%
    10:00 +18°C° 0 mm 4 mps 742 mmHg 69%
    11:00 +20°C° 0 mm 4 mps 742 mmHg 61%
    12:00 +20°C° 0.2 mm 4 mps 741 mmHg 62%
    13:00 +21°C° 0.2 mm 4 mps 741 mmHg 63%
    14:00 +21°C° 0.2 mm 4 mps 740 mmHg 64%
    15:00 +20°C° 1.8 mm 4 mps 740 mmHg 73%
    16:00 +19°C° 1.8 mm 3 mps 739 mmHg 81%
    17:00 +17°C° 1.8 mm 3 mps 739 mmHg 90%
    18:00 +17°C° 1.5 mm 3 mps 738 mmHg 92%
    19:00 +16°C° 1.5 mm 2 mps 738 mmHg 94%
    20:00 +16°C° 1.5 mm 2 mps 738 mmHg 95%
    21:00 +15°C° 0.5 mm 2 mps 738 mmHg 96%
    22:00 +15°C° 0.5 mm 2 mps 738 mmHg 96%
    23:00 +14°C° 0.5 mm 2 mps 737 mmHg 97%

    Tomorrow, 26 May, Sunday

    Time Temperature Precipitation Wind Pressure Humidity
    00:00 +13°C° 0 mm 2 mps 738 mmHg 97%
    01:00 +12°C° 0 mm 2 mps 738 mmHg 97%
    02:00 +12°C° 0 mm 1 mps 738 mmHg 97%
    03:00 +12°C° 0 mm 2 mps 738 mmHg 96%
    04:00 +12°C° 0 mm 2 mps 738 mmHg 95%
    05:00 +12°C° 0 mm 2 mps 738 mmHg 94%
    06:00 +13°C° 0 mm 2 mps 738 mmHg 87%
    07:00 +15°C° 0 mm 2 mps 739 mmHg 80%
    08:00 +16°C° 0 mm 2 mps 739 mmHg 73%
    09:00 +17°C° 0 mm 2 mps 739 mmHg 66%
    10:00 +18°C° 0 mm 3 mps 739 mmHg 60%
    11:00 +19°C° 0 mm 3 mps 739 mmHg 54%
    12:00 +20°C° 0 mm 3 mps 739 mmHg 53%
    13:00 +20°C° 0 mm 3 mps 738 mmHg 52%
    14:00 +20°C° 0 mm 3 mps 738 mmHg 51%
    15:00 +20°C° 0 mm 3 mps 738 mmHg 53%
    16:00 +20°C° 0 mm 2 mps 738 mmHg 54%
    17:00 +19°C° 0 mm 2 mps 738 mmHg 56%
    18:00 +17°C° 0 mm 2 mps 738 mmHg 62%
    19:00 +15°C° 0 mm 1 mps 738 mmHg 68%
    20:00 +13°C° 0 mm 1 mps 738 mmHg 74%
    21:00 +13°C° 0 mm 2 mps 738 mmHg 76%
    22:00 +12°C° 0 mm 2 mps 738 mmHg 78%
    23:00 +11°C° 0 mm 3 mps 738 mmHg 80%

    Day after tomorrow, 27 May, Monday

    Time Temperature Precipitation Wind Pressure Humidity
    00:00 +10°C° 0 mm 3 mps 738 mmHg 82%
    01:00 +10°C° 0 mm 3 mps 738 mmHg 85%
    02:00 +10°C° 0 mm 3 mps 739 mmHg 87%
    03:00 +10°C° 0 mm 3 mps 739 mmHg 84%
    04:00 +10°C° 0 mm 3 mps 739 mmHg 82%
    05:00 +10°C° 0 mm 4 mps 739 mmHg 79%
    06:00 +11°C° 0 mm 4 mps 740 mmHg 74%
    07:00 +12°C° 0 mm 5 mps 740 mmHg 70%
    08:00 +13°C° 0 mm 5 mps 740 mmHg 65%
    09:00 +14°C° 0 mm 5 mps 740 mmHg 61%
    10:00 +15°C° 0 mm 6 mps 741 mmHg 56%
    11:00 +16°C° 0 mm 6 mps 741 mmHg 52%
    12:00 +17°C° 0 mm 6 mps 741 mmHg 51%
    13:00 +19°C° 0 mm 6 mps 741 mmHg 50%
    14:00 +20°C° 0 mm 5 mps 741 mmHg 49%
    15:00 +19°C° 0 mm 5 mps 742 mmHg 54%
    16:00 +19°C° 0 mm 5 mps 742 mmHg 58%
    17:00 +18°C° 0 mm 4 mps 742 mmHg 63%
    18:00 +17°C° 0 mm 3 mps 742 mmHg 69%
    19:00 +16°C° 0 mm 3 mps 742 mmHg 75%
    20:00 +15°C° 0 mm 2 mps 742 mmHg 82%
    21:00 +15°C° 0 mm 2 mps 743 mmHg 83%
    22:00 +14°C° 0 mm 3 mps 743 mmHg 85%
    23:00 +13°C° 0 mm 3 mps 743 mmHg 87%

    28 May, Tuesday

    Time Temperature Precipitation Wind Pressure Humidity
    00:00 +14°C° 0 mm 3 mps 743 mmHg 88%
    01:00 +14°C° 0 mm 3 mps 743 mmHg 89%
    02:00 +14°C° 0 mm 3 mps 743 mmHg 90%
    03:00 +14°C° 0 mm 3 mps 743 mmHg 91%
    04:00 +14°C° 0 mm 3 mps 743 mmHg 91%
    05:00 +14°C° 0 mm 3 mps 743 mmHg 91%
    06:00 +17°C° 0 mm 3 mps 743 mmHg 85%
    07:00 +18°C° 0 mm 3 mps 744 mmHg 78%
    08:00 +20°C° 0 mm 4 mps 744 mmHg 72%
    09:00 +21°C° 0.1 mm 4 mps 744 mmHg 67%
    10:00 +23°C° 0.1 mm 4 mps 744 mmHg 63%
    11:00 +25°C° 0.1 mm 5 mps 744 mmHg 59%
    12:00 +25°C° 0.4 mm 4 mps 744 mmHg 60%
    13:00 +25°C° 0.4 mm 4 mps 744 mmHg 60%
    14:00 +25°C° 0.4 mm 4 mps 744 mmHg 61%
    15:00 +25°C° 0.4 mm 3 mps 744 mmHg 67%
    16:00 +24°C° 0.4 mm 3 mps 744 mmHg 72%
    17:00 +24°C° 0.4 mm 2 mps 744 mmHg 78%
    18:00 +21°C° 0.7 mm 2 mps 744 mmHg 82%
    19:00 +20°C° 0.7 mm 2 mps 744 mmHg 87%
    20:00 +19°C° 0.7 mm 2 mps 744 mmHg 92%
    21:00 +18°C° 1.1 mm 2 mps 744 mmHg 93%
    22:00 +18°C° 1.1 mm 3 mps 744 mmHg 94%
    23:00 +18°C° 1.1 mm 3 mps 744 mmHg 95%

    29 May, Wednesday

    Time Temperature Precipitation Wind Pressure Humidity
    00:00 +18°C° 0 mm 3 mps 744 mmHg 95%
    01:00 +18°C° 0 mm 3 mps 744 mmHg 95%
    02:00 +18°C° 0 mm 3 mps 744 mmHg 95%
    03:00 +18°C° 0 mm 3 mps 744 mmHg 95%
    04:00 +18°C° 0 mm 3 mps 744 mmHg 95%
    05:00 +17°C° 0 mm 3 mps 744 mmHg 94%
    06:00 +19°C° 0 mm 3 mps 744 mmHg 90%
    07:00 +20°C° 0 mm 4 mps 744 mmHg 85%
    08:00 +22°C° 0 mm 4 mps 744 mmHg 80%
    09:00 +23°C° 0 mm 5 mps 744 mmHg 71%
    10:00 +26°C° 0 mm 5 mps 744 mmHg 63%
    11:00 +27°C° 0 mm 6 mps 744 mmHg 54%
    12:00 +28°C° 0 mm 6 mps 743 mmHg 53%
    13:00 +28°C° 0 mm 6 mps 743 mmHg 52%
    14:00 +28°C° 0 mm 6 mps 742 mmHg 50%
    15:00 +28°C° 0 mm 6 mps 742 mmHg 54%
    16:00 +27°C° 0 mm 6 mps 742 mmHg 57%
    17:00 +27°C° 0 mm 5 mps 742 mmHg 61%
    18:00 +25°C° 1.1 mm 5 mps 742 mmHg 70%
    19:00 +22°C° 1.1 mm 4 mps 743 mmHg 80%
    20:00 +20°C° 1.1 mm 4 mps 743 mmHg 90%
    21:00 +19°C° 0 mm 3 mps 744 mmHg 92%
    22:00 +18°C° 0 mm 3 mps 744 mmHg 94%
    23:00 +18°C° 0 mm 2 mps 744 mmHg 97%

    30 May, Thursday

    Time Temperature Precipitation Wind Pressure Humidity
    00:00 +17°C° 0.1 mm 2 mps 745 mmHg 96%
    01:00 +16°C° 0.1 mm 2 mps 745 mmHg 96%
    02:00 +15°C° 0.1 mm 2 mps 745 mmHg 96%
    03:00 +15°C° 0.7 mm 2 mps 746 mmHg 95%
    04:00 +14°C° 0.7 mm 2 mps 746 mmHg 95%
    05:00 +13°C° 0.7 mm 2 mps 746 mmHg 95%
    06:00 +14°C° 0.2 mm 2 mps 747 mmHg 91%
    07:00 +14°C° 0.2 mm 3 mps 747 mmHg 88%
    08:00 +16°C° 0.2 mm 3 mps 748 mmHg 84%
    09:00 +16°C° 0 mm 3 mps 748 mmHg 78%
    10:00 +17°C° 0 mm 3 mps 749 mmHg 72%
    11:00 +18°C° 0 mm 3 mps 749 mmHg 65%
    12:00 +19°C° 0 mm 3 mps 749 mmHg 59%
    13:00 +19°C° 0 mm 3 mps 749 mmHg 53%
    14:00 +20°C° 0 mm 3 mps 750 mmHg 46%
    15:00 +20°C° 0 mm 2 mps 750 mmHg 47%
    16:00 +20°C° 0 mm 2 mps 750 mmHg 47%
    17:00 +20°C° 0 mm 2 mps 750 mmHg 47%
    18:00 +18°C° 0 mm 2 mps 750 mmHg 53%
    19:00 +16°C° 0 mm 1 mps 750 mmHg 59%
    20:00 +14°C° 0 mm 1 mps 750 mmHg 65%
    21:00 +13°C° 0 mm 1 mps 750 mmHg 66%
    22:00 +12°C° 0 mm 1 mps 751 mmHg 66%
    23:00 +11°C° 0 mm 1 mps 751 mmHg 67%
    Show more